Hillsboro, OR

5:13 PM PST on December 07, 2016 (GMT -0800)
Portland-Hillsboro

Weather History for KHIO - June, 2013

Change the Weather History Date:

Wednesday, June 19, 2013

  Actual Average Record
Temperature  
Mean Temperature 58 °F 61 °F  
Max Temperature 68 °F 73 °F 94 °F (1982)
Min Temperature 48 °F 49 °F 34 °F (1934)
Degree Days  
Heating Degree Days 7 5  
Month to date heating degree days 90 111  
Since 1 July heating degree days 4721 4961  
Cooling Degree Days 0 1  
Month to date cooling degree days 5 5  
Year to date cooling degree days 11 11  
Growing Degree Days 8 (Base 50)    
Moisture  
Dew Point 48 °F    
Average Humidity 69    
Maximum Humidity 93    
Minimum Humidity 45    
Precipitation  
Precipitation 0.03 in 0.05 in 0.78 in (2009)
Month to date precipitation 0.79 1.05  
Year to date precipitation 12.25 20.54  
Snow  
Snow 0.00 in - - ()
Month to date snowfall 0.0  
Since 1 June snowfall 0.0  
Since 1 July snowfall 0.0  
Snow Depth 0.00 in    
Sea Level Pressure  
Sea Level Pressure 30.00 in    
Wind  
Wind Speed 4 mph (West)    
Max Wind Speed 17 mph    
Max Gust Speed 22 mph    
Visibility 9 miles    
Events Rain    
T = Trace of Precipitation, MM = Missing Value Source: NWS Daily Summary

Daily Weather History Graph

Daily Weather History Graph

Search for Another Location

Airport or City:

Trip Planner

Search our weather history database for the weather conditions in past years. The results will help you decide how hot, cold, wet, or windy it might be!

Date:

Astronomy

Jun. 19, 2013 Rise Set
Actual Time 5:22 AM PDT 9:03 PM PDT
Civil Twilight 4:44 AM PDT 9:42 PM PDT
Nautical Twilight 3:53 AM PDT 10:33 PM PDT
Astronomical Twilight 2:44 AM PDT 11:42 PM PDT
Moon 4:55 PM PDT (6/19) 2:20 AM PDT (6/19)
Length of Visible Light 16h 57m
Length of Day
15h 41m
Waxing Gibbous, 81% of the Moon is Illuminated
Jun 19
Waxing Gibbous
Jun 23
Full
Jun 29
Last Quarter
Jul 8
New
Jul 15
First Quarter

Hourly Weather History & Observations

Time (PDT) Temp. Dew Point Humidity Pressure Visibility Wind Dir Wind Speed Gust Speed Precip Events Conditions
12:53 AM 54.0 °F 48.9 °F 83% 29.98 in 10.0 mi WNW 3.5 mph - N/A   Overcast
1:53 AM 52.0 °F 48.9 °F 89% 29.96 in 10.0 mi Calm Calm - N/A   Partly Cloudy
2:53 AM 50.0 °F 48.0 °F 93% 29.96 in 10.0 mi Calm Calm - N/A   Partly Cloudy
3:53 AM 50.0 °F 48.0 °F 93% 29.96 in 10.0 mi Calm Calm - N/A   Mostly Cloudy
4:30 AM 48.0 °F 46.9 °F 96% 29.97 in 2.5 mi North 3.5 mph - N/A   Mostly Cloudy
4:35 AM 48.0 °F 46.9 °F 96% 29.97 in 1.8 mi North 3.5 mph - N/A   Mostly Cloudy
4:53 AM 48.9 °F 46.9 °F 93% 29.97 in 2.5 mi NNE 3.5 mph - N/A   Overcast
5:01 AM 48.9 °F 46.9 °F 93% 29.97 in 6.0 mi Calm Calm - N/A   Overcast
5:53 AM 50.0 °F 48.0 °F 93% 29.97 in 10.0 mi Calm Calm - N/A   Overcast
6:53 AM 51.1 °F 48.0 °F 89% 29.98 in 10.0 mi Calm Calm - N/A   Overcast
7:53 AM 52.0 °F 48.9 °F 89% 29.99 in 10.0 mi Calm Calm - N/A   Overcast
8:53 AM 55.9 °F 50.0 °F 80% 29.99 in 10.0 mi Calm Calm - N/A   Mostly Cloudy
9:53 AM 57.9 °F 48.9 °F 72% 29.99 in 10.0 mi NNW 3.5 mph - N/A   Mostly Cloudy
10:53 AM 61.0 °F 48.0 °F 62% 29.98 in 10.0 mi SW 5.8 mph - N/A   Mostly Cloudy
11:53 AM 62.1 °F 46.9 °F 58% 29.99 in 10.0 mi NNW 5.8 mph - N/A   Overcast
12:53 PM 60.1 °F 50.0 °F 69% 29.99 in 10.0 mi West 5.8 mph - 0.00 in Rain Light Rain
1:53 PM 57.9 °F 52.0 °F 81% 30.00 in 6.0 mi South 6.9 mph - 0.03 in Rain Light Rain
2:53 PM 62.1 °F 51.1 °F 67% 30.01 in 10.0 mi South 3.5 mph - 0.00 in   Overcast
3:53 PM 64.0 °F 48.9 °F 58% 30.01 in 10.0 mi Calm Calm - N/A   Mostly Cloudy
4:53 PM 68.0 °F 46.9 °F 47% 30.00 in 10.0 mi WNW 10.4 mph - N/A   Mostly Cloudy
5:53 PM 66.0 °F 46.0 °F 48% 30.02 in 10.0 mi WSW 12.7 mph - N/A   Mostly Cloudy
6:53 PM 62.1 °F 46.9 °F 58% 30.05 in 10.0 mi WSW 10.4 mph - N/A   Partly Cloudy
7:53 PM 61.0 °F 46.0 °F 58% 30.06 in 10.0 mi WSW 5.8 mph - N/A   Overcast
8:53 PM 60.1 °F 46.9 °F 62% 30.07 in 10.0 mi WSW 5.8 mph - 0.00 in   Overcast
9:53 PM 57.9 °F 46.9 °F 67% 30.08 in 10.0 mi SW 8.1 mph - N/A   Overcast
10:53 PM 57.9 °F 48.0 °F 70% 30.09 in 10.0 mi SSW 4.6 mph - N/A   Overcast
11:53 PM 57.0 °F 48.0 °F 72% 30.08 in 10.0 mi SSW 5.8 mph - 0.00 in   Overcast